Regional Weather Roundup
Issued by NWS

Home | Current Version | Previous Version | Graphics & Text | Print | Product List | Glossary On
Versions: 1 2 3 4 5 6 7 8 9 10 11 12 13 14 15 16 17 18 19 20 21 22 23 24 25 26 27 28 29 30 31 32 33 34 35 36 37 38 39 40 41 42 43 44 45 46 47 48 49 50
691
ASUS45 KSLC 271310
RWRUT

UTAH REGIONAL WEATHER ROUNDUP
NATIONAL WEATHER SERVICE SALT LAKE CITY UT
700 AM MDT FRI MAY 27 2016

UTZ001>011-023>025-271400-

NORTHERN UTAH

CITY           SKY/WX    TMP DP  RH WIND       PRES   REMARKS
BRIGHAM CITY     N/A     48  43  84 NW3       29.97R
HILL AFB       CLEAR     47  39  73 E14       29.98R
LOGAN          PTCLDY    41  40  96 NE3       29.98R
OGDEN          CLEAR     48  40  73 S9        29.96R
PROVO AIRPORT  MOCLDY    43  36  75 E3        30.00R
SALT LAKE CITY PTCLDY    54  42  64 SE9       29.97R
VERNAL         CLOUDY    50  36  58 W8        29.97R
WENDOVER       MOCLDY    54  39  58 SW3       29.98R
HEBER CITY     MOCLDY    36  34  93 CALM      30.02S
WEST JORDAN    MOCLDY    48  43  81 S3        29.98S

$$

UTZ012>022-026-027-271400-

SOUTHERN/CENTRAL UTAH

CITY           SKY/WX    TMP DP  RH WIND       PRES   REMARKS
BLANDING       SUNNY     42  32  65 CALM      30.04R
BRYCE CANYON   CLEAR     34  29  82 N3        30.09R
CEDAR CITY     PTCLDY    36  33  89 CALM      30.03R
DELTA          PTCLDY    43  37  81 CALM      30.01R
HANKSVILLE     CLEAR     45  32  61 CALM      29.96R
MILFORD        CLOUDY    46  39  76 SW12      30.01S
MOAB/CYNLANDS  SUNNY     47  30  51 SW3       29.92R
PRICE          CLOUDY    53  33  46 NW7       29.98R
ST GEORGE      MOSUNNY   55  34  44 SE5       29.96R
KANAB          CLEAR     45  36  70 CALM      30.05

$$

REGIONAL REPORTS     COLORADO/ARIZONA

CITY           SKY/WX    TMP DP  RH WIND       PRES   REMARKS
CRAIG, CO      CLOUDY    39  35  86 E3        30.00R
GRAND JUNCTION MOSUNNY   50  39  66 CALM      29.93R
RIFLE          CLOUDY    45  39  79 E6        29.96R
MONTROSE       CLOUDY    46  39  76 S3        29.99R
CORTEZ         SUNNY     37  31  78 E5        29.98R WCI  33
PAGE, AZ       CLEAR     57  35  43 CALM      29.95R
GRAND CANYON   CLEAR     32  25  75 CALM      30.08R
KINGMAN        CLEAR     54  29  38 SE6       29.93R
FLAGSTAFF      CLEAR     33  27  78 SW3       30.08R

$$

REGIONAL REPORTS    NEVADA/IDAHO/WYOMING

CITY           SKY/WX    TMP DP  RH WIND       PRES   REMARKS
LAS VEGAS, NV  PTCLDY    69  36  29 CALM      29.84R
ELY            PTCLDY    33  30  88 S8        30.07R WCI  26
ELKO           MOCLDY    42  39  89 NE5       30.02R
POCATELLO, ID  CLOUDY    51  40  65 S8        29.96R
BURLEY         CLEAR     47  39  74 SW7       29.95R
EVANSTON, WY   CLOUDY    40  33  76 SW6       30.04R
ROCK SPRINGS   CLOUDY    42  41  96 W6        30.01S
KEMMERER         N/A     37  32  81 NW9       30.04R WCI  31

$$




USA.gov is the U.S. government's official web portal to all federal, state and local government web resources and services.